Location: Anumalkud?ru
(16.4847°N, 80.6636°E)
Time: 22:51:45
(UTC+00:00)

Aureole 1 Rocket - Pass Details

Date: 11 April 2026
Orbit: 373 x 1151 km, 73.9° (Epoch: 9 May)

Event Time Altitude Azimuth Distance (km) Brightness Sun altitude
Rises 13:24:26 0° 202° (SSW) 3,032 6.7 -8.5°
Reaches altitude 10° 13:27:01 10° 208° (SSW) 1,981 5.9 -9.1°
Maximum altitude 13:31:12 48° 282° (WNW) 692 3.9 -10.1°
Drops below altitude 10° 13:34:38 10° 359° (N) 1,615 5.4 -10.9°
Sets 13:36:34 0° 5° (N) 2,408 6.2 -11.3°
